Home > Weather > Swansea > Past weeks

Flag for United Kingdom Weather for the Past 2 Weeks in Swansea, Wales, United Kingdom

Now
43 °F

Quite cool.


Feels Like: 32 °F
Forecast: 42 / 49 °F
Wind: 32 mph from West

Location: Mumbles

Current Time: Feb 7, 2016 at 6:51:58 AM

Latest Report: Feb 7, 2016 at 6:00 AM


Visibility: N/A

Pressure: 29.18 "Hg

Humidity: 86%

Dew point: 39 °F

Location of SwanseaLocation

Historic Weather in Swansea — Graph

°F

Swansea Temperature Yesterday

Maximum temperature yesterday: 49 °F (at 4:00 PM)
Minimum temperature yesterday: 44 °F (at 12:00 AM)
Average temperature yesterday: 47 °F

High & Low Weather Summary for the Past Weeks

 TemperatureHumidityPressure
High54 °F (Jan 24, 8:00 PM)100% (Jan 24, 9:00 AM)30.39 "Hg (Jan 24, 9:00 AM)
Low40 °F (Feb 7, 5:00 AM)58% (Feb 2, 2:00 PM)29.03 "Hg (Feb 6, 4:00 PM)
Average49 °F89%29.97 "Hg
* Reported Jan 23 5:00 AM — Feb 7 5:00 AM, Swansea, Weather by CustomWeather, © 2016

Note: Actual official high and low records may vary slightly from our data, if they occured in-between our weather recording intervals... More about our weather records

Advertising

Swansea Weather History for the Previous 24 Hours

 ConditionsComfort  
Time TempWeatherWind HumidityBarometerVisibility
5:00 AM
Sun, Feb 7
40 °FChilly.16 mph91%29.18 "HgN/A
4:00 AM43 °FQuite cool.24 mph90%29.18 "HgN/A
8:00 PM
Sat, Feb 6
47 °FCool.26 mph75%29.09 "HgN/A
7:00 PM46 °FCool.16 mph86%29.06 "HgN/A
6:00 PM46 °FCool.25 mph97%29.06 "HgN/A
5:00 PM47 °FCool.32 mph95%29.03 "HgN/A
4:00 PM49 °FCool.35 mph93%29.03 "HgN/A
3:00 PM49 °FCool.31 mph95%29.06 "HgN/A
2:00 PM49 °FCool.35 mph94%29.12 "HgN/A
1:00 PM48 °FCool.33 mph98%29.15 "HgN/A
12:00 PM47 °FCool.20 mph98%29.23 "HgN/A
11:00 AM47 °FCool.24 mph97%29.26 "HgN/A
10:00 AM48 °FCool.23 mph99%29.26 "HgN/A
9:00 AM47 °FCool.18 mph96%29.35 "HgN/A
8:00 AM47 °FCool.25 mph94%29.41 "HgN/A
7:00 AM47 °FCool.18 mph97%29.44 "HgN/A
6:00 AM47 °FCool.21 mph96%29.50 "HgN/A
Weather by CustomWeather, © 2016

See weather overviewHow to use our weather pages